Home   Weather   Navi Mumbai   Past weeks

Flag for India Past Weather in Navi Mumbai, Maharashtra, India — Yesterday and Last 2 Weeks

Now
90 °F

Haze.


Feels Like: 95 °F
Forecast: 74 / 95 °F
Wind: 12 mph from West

Location: Mumbai / Santacruz

Current Time: Apr 24, 2017 at 12:51:34 pm

Latest Report: Apr 24, 2017 at 12:00 pm


Visibility: 3 mi

Pressure: 29.89 "Hg

Humidity: 52%

Dew Point: 70 °F

Location of Navi MumbaiLocation

Past Weather in Navi Mumbai — Graph

°F

Navi Mumbai Temperature Yesterday

Maximum temperature yesterday: 91 °F (at 12:00 pm)
Minimum temperature yesterday: 82 °F (at 3:00 am)
Average temperature yesterday: 86 °F

High & Low Weather Summary for the Past Weeks

 TemperatureHumidityPressure
High99 °F (Apr 9, 4:30 pm)89% (Apr 11, 4:30 am)29.89 "Hg (Apr 11, 4:30 am)
Low81 °F (Apr 10, 4:00 am)22% (Apr 10, 5:30 pm)29.68 "Hg (Apr 10, 3:30 pm)
Average87 °F69%29.78 "Hg
* Reported Apr 9 10:30 am — Apr 24 11:00 am, Navi Mumbai, Weather by CustomWeather, © 2017

Note: Actual official high and low records may vary slightly from our data, if they occured in-between our weather recording intervals... More about our weather records

Advertising

Navi Mumbai Weather History for the Previous 24 Hours

Scroll right to see more
 ConditionsComfort  
Time TempWeatherWind HumidityBarometerVisibility
11:00 am
Mon, Apr 24
90 °FHaze.10 mph55%29.89 "Hg3 mi
10:30 am90 °FHaze.8 mph55%29.89 "Hg3 mi
10:00 am88 °FScattered clouds.7 mph59%29.89 "Hg2 mi
9:30 am88 °FScattered clouds.5 mph59%29.89 "Hg2 mi
9:00 am86 °FScattered clouds.7 mph62%29.86 "Hg2 mi
8:00 am84 °FScattered clouds.6 mph62%29.86 "Hg2 mi
7:30 am84 °FHaze.3 mph66%29.83 "Hg2 mi
7:00 am84 °FScattered clouds.6 mph66%29.83 "Hg2 mi
6:30 am82 °FPassing clouds.5 mph70%29.83 "Hg2 mi
6:00 am82 °FPassing clouds.No wind70%29.80 "Hg2 mi
5:30 am82 °FPassing clouds.No wind70%29.80 "Hg2 mi
5:00 am82 °FPassing clouds.3 mph70%29.77 "Hg2 mi
4:30 am82 °FPassing clouds.5 mph70%29.77 "Hg2 mi
4:00 am82 °FPassing clouds.No wind70%29.77 "Hg2 mi
3:30 am82 °FPassing clouds.No wind70%29.77 "Hg2 mi
3:00 am82 °FPassing clouds.7 mph70%29.77 "Hg2 mi
2:30 am84 °FPassing clouds.3 mph66%29.77 "Hg2 mi
2:00 am82 °FPassing clouds.7 mph70%29.80 "Hg2 mi
1:30 am82 °FPassing clouds.6 mph70%29.80 "Hg2 mi
12:30 am84 °FPassing clouds.7 mph66%29.80 "Hg2 mi
12:00 am84 °FPassing clouds.6 mph66%29.83 "Hg2 mi
11:30 pm
Sun, Apr 23
84 °FPassing clouds.7 mph66%29.83 "Hg2 mi
11:00 pm84 °FPassing clouds.7 mph66%29.83 "Hg2 mi
10:30 pm84 °FPassing clouds.6 mph70%29.83 "Hg2 mi
10:00 pm84 °FPassing clouds.9 mph70%29.83 "Hg2 mi
9:30 pm84 °FPassing clouds.7 mph70%29.83 "Hg2 mi
9:00 pm84 °FPassing clouds.9 mph70%29.83 "Hg2 mi
8:30 pm84 °FPassing clouds.10 mph70%29.80 "Hg2 mi
8:00 pm84 °FPassing clouds.12 mph70%29.80 "Hg2 mi
7:30 pm84 °FPassing clouds.12 mph70%29.80 "Hg2 mi
6:30 pm86 °FScattered clouds.9 mph66%29.77 "Hg3 mi
5:30 pm88 °FHaze.13 mph66%29.77 "Hg3 mi
5:00 pm90 °FHaze.12 mph63%29.77 "Hg3 mi
4:30 pm90 °FHaze.9 mph59%29.77 "Hg3 mi
4:00 pm90 °FHaze.12 mph75%29.77 "Hg3 mi
3:30 pm90 °FScattered clouds.10 mph63%29.80 "Hg4 mi
3:00 pm90 °FPassing clouds.9 mph59%29.80 "Hg4 mi
2:30 pm91 °FPassing clouds.10 mph56%29.80 "Hg4 mi
2:00 pm91 °FPassing clouds.13 mph56%29.83 "Hg4 mi
1:30 pm91 °FPassing clouds.12 mph63%29.83 "Hg5 mi
12:30 pm90 °FPassing clouds.10 mph59%29.86 "Hg4 mi
12:00 pm91 °FPassing clouds.10 mph56%29.86 "Hg4 mi
Weather by CustomWeather, © 2017

See weather overviewHow to use our weather pages